"Sample Date","Sample Time","Sample Value","Units","Flow Rate","Sample Interval","Number Channels","Micron Size 0","Counts/Channel 0","Micron Size 1","Counts/Channel 1","Micron Size 2","Counts/Channel 2","Micron Size 3","Counts/Channel 3","Micron Size 4","Counts/Channel 4","Micron Size 5","Counts/Channel 5","Micron Size 6","Counts/Channel 6","Micron Size 7","Counts/Channel 7","Micron Size 8","Counts/Channel 8","Micron Size 9","Counts/Channel 9","Micron Size 10","Counts/Channel 10","Micron Size 11","Counts/Channel 11","Micron Size 12","Counts/Channel 12","Micron Size 13","Counts/Channel 13","Micron Size 14","Counts/Channel 14","Micron Size 15","Counts/Channel 15","Micron Size 16","Counts/Channel 16","Micron Size 17","Counts/Channel 17","Micron Size 18","Counts/Channel 18","Micron Size 19","Counts/Channel 19","Micron Size 20","Counts/Channel 20","Micron Size 21","Counts/Channel 21","Micron Size 22","Counts/Channel 22","Micron Size 23","Counts/Channel 23","Micron Size 24","Counts/Channel 24","Micron Size 25","Counts/Channel 25","Micron Size 26","Counts/Channel 26","Micron Size 27","Counts/Channel 27","Micron Size 28","Counts/Channel 28","Micron Size 29","Counts/Channel 29","Micron Size 30","Counts/Channel 30","Micron Size 31","Counts/Channel 31"
"03/06/08","04:00:02",23803.000,"cc",28299.500,6.00,6,0.100,20890.000,0.200,2098.000,0.300,362.000,0.500,327.000,1.000,126.000,5.000,0
"03/06/08","04:00:08",23841.000,"cc",28357.953,6.00,6,0.100,21051.000,0.200,1986.000,0.300,326.000,0.500,377.000,1.000,101.000,5.000,0
"03/06/08","04:00:14",23355.000,"cc",28315.190,6.00,6,0.100,20740.000,0.200,1910.000,0.300,315.000,0.500,287.000,1.000,103.000,5.000,0
"03/06/08","04:00:20",23758.000,"cc",28255.408,6.00,6,0.100,21015.000,0.200,1963.000,0.300,344.000,0.500,315.000,1.000,121.000,5.000,0
"03/06/08","04:00:26",23880.000,"cc",28328.428,6.00,6,0.100,21180.000,0.200,1941.000,0.300,340.000,0.500,324.000,1.000,95.000,5.000,0
"03/06/08","04:00:32",23989.000,"cc",28274.635,6.00,6,0.100,21249.000,0.200,1941.000,0.300,330.000,0.500,353.000,1.000,116.000,5.000,0
"03/06/08","04:00:38",23896.000,"cc",28350.102,6.00,6,0.100,21201.000,0.200,1957.000,0.300,318.000,0.500,319.000,1.000,101.000,5.000,0
"03/06/08","04:00:44",24244.000,"cc",28280.857,6.00,6,0.100,21363.000,0.200,2073.000,0.300,329.000,0.500,359.000,1.000,120.000,5.000,0
"03/06/08","04:00:50",23991.000,"cc",28313.123,6.00,6,0.100,21135.000,0.200,2040.000,0.300,368.000,0.500,337.000,1.000,111.000,5.000,0
"03/06/08","04:00:56",23852.000,"cc",28341.869,6.00,6,0.100,21181.000,0.200,1915.000,0.300,330.000,0.500,327.000,1.000,99.000,5.000,0
"03/06/08","04:01:02",23990.000,"cc",28353.973,6.00,6,0.100,21305.000,0.200,1904.000,0.300,316.000,0.500,358.000,1.000,107.000,5.000,0
"03/06/08","04:01:08",24056.000,"cc",28345.504,6.00,6,0.100,21267.000,0.200,2015.000,0.300,321.000,0.500,327.000,1.000,126.000,5.000,0
"03/06/08","04:01:14",24502.000,"cc",28361.072,6.00,6,0.100,21560.000,0.200,2131.000,0.300,348.000,0.500,360.000,1.000,103.000,5.000,0
"03/06/08","04:01:20",23847.000,"cc",28288.975,6.00,6,0.100,21104.000,0.200,1976.000,0.300,329.000,0.500,337.000,1.000,101.000,5.000,0
"03/06/08","04:01:26",24063.000,"cc",28310.996,6.00,6,0.100,21347.000,0.200,1995.000,0.300,297.000,0.500,324.000,1.000,100.000,5.000,0
"03/06/08","04:01:32",23925.000,"cc",28238.799,6.00,6,0.100,21067.000,0.200,2073.000,0.300,334.000,0.500,361.000,1.000,90.000,5.000,0
"03/06/08","04:01:38",23622.000,"cc",28259.424,6.00,6,0.100,20958.000,0.200,1959.000,0.300,295.000,0.500,294.000,1.000,116.000,5.000,0
"03/06/08","04:01:44",23758.000,"cc",28331.592,6.00,6,0.100,20975.000,0.200,2083.000,0.300,284.000,0.500,324.000,1.000,92.000,5.000,0
"03/06/08","04:01:50",23947.000,"cc",28310.531,6.00,6,0.100,21220.000,0.200,2015.000,0.300,306.000,0.500,318.000,1.000,88.000,5.000,0
"03/06/08","04:01:56",23660.000,"cc",28315.523,6.00,6,0.100,21050.000,0.200,1879.000,0.300,321.000,0.500,309.000,1.000,101.000,5.000,0
"03/06/08","04:02:02",23825.000,"cc",28405.840,6.00,6,0.100,21083.000,0.200,1987.000,0.300,307.000,0.500,343.000,1.000,105.000,5.000,0
"03/06/08","04:02:08",23912.000,"cc",28319.744,6.00,6,0.100,21048.000,0.200,2055.000,0.300,336.000,0.500,356.000,1.000,117.000,5.000,0
"03/06/08","04:02:14",23802.000,"cc",28271.625,6.00,6,0.100,21123.000,0.200,1936.000,0.300,320.000,0.500,317.000,1.000,106.000,5.000,0
"03/06/08","04:02:20",24099.000,"cc",28279.574,6.00,6,0.100,21330.000,0.200,1974.000,0.300,343.000,0.500,350.000,1.000,102.000,5.000,0
"03/06/08","04:02:26",24126.000,"cc",28400.854,6.00,6,0.100,21147.000,0.200,2096.000,0.300,396.000,0.500,376.000,1.000,111.000,5.000,0
"03/06/08","04:02:32",24681.000,"cc",28275.502,6.00,6,0.100,21671.000,0.200,2088.000,0.300,421.000,0.500,389.000,1.000,112.000,5.000,0
"03/06/08","04:02:38",24131.000,"cc",28263.242,6.00,6,0.100,21176.000,0.200,2074.000,0.300,395.000,0.500,345.000,1.000,141.000,5.000,0
"03/06/08","04:02:44",23982.000,"cc",28349.242,6.00,6,0.100,21031.000,0.200,2105.000,0.300,340.000,0.500,376.000,1.000,130.000,5.000,0
"03/06/08","04:02:50",24378.000,"cc",28301.453,6.00,6,0.100,21555.000,0.200,1985.000,0.300,361.000,0.500,361.000,1.000,116.000,5.000,0
"03/06/08","04:02:56",24263.000,"cc",28341.494,6.00,6,0.100,21370.000,0.200,2071.000,0.300,340.000,0.500,369.000,1.000,113.000,5.000,0
"03/06/08","04:03:02",24622.000,"cc",28338.914,6.00,6,0.100,21745.000,0.200,2095.000,0.300,337.000,0.500,339.000,1.000,106.000,5.000,0
"03/06/08","04:03:08",23733.000,"cc",28320.381,6.00,6,0.100,21057.000,0.200,1919.000,0.300,309.000,0.500,343.000,1.000,105.000,5.000,0
"03/06/08","04:03:14",24278.000,"cc",28255.801,6.00,6,0.100,21409.000,0.200,2014.000,0.300,363.000,0.500,369.000,1.000,123.000,5.000,0
"03/06/08","04:03:20",24296.000,"cc",28311.881,6.00,6,0.100,21481.000,0.200,1968.000,0.300,356.000,0.500,377.000,1.000,114.000,5.000,0
"03/06/08","04:03:26",24360.000,"cc",28334.693,6.00,6,0.100,21469.000,0.200,2075.000,0.300,334.000,0.500,364.000,1.000,118.000,5.000,0
"03/06/08","04:03:32",24122.000,"cc",28319.863,6.00,6,0.100,21374.000,0.200,1980.000,0.300,307.000,0.500,357.000,1.000,104.000,5.000,0
"03/06/08","04:03:38",24178.000,"cc",28342.592,6.00,6,0.100,21293.000,0.200,2046.000,0.300,372.000,0.500,341.000,1.000,126.000,5.000,0
"03/06/08","04:03:44",24545.000,"cc",28320.635,6.00,6,0.100,21568.000,0.200,2132.000,0.300,344.000,0.500,366.000,1.000,135.000,5.000,0
"03/06/08","04:03:50",24617.000,"cc",28315.844,6.00,6,0.100,21719.000,0.200,2060.000,0.300,361.000,0.500,367.000,1.000,110.000,5.000,0
"03/06/08","04:03:56",26205.000,"cc",28337.572,6.00,6,0.100,22613.000,0.200,2463.000,0.300,533.000,0.500,473.000,1.000,123.000,5.000,0
"03/06/08","04:04:02",24652.000,"cc",28325.340,6.00,6,0.100,21671.000,0.200,2091.000,0.300,404.000,0.500,376.000,1.000,110.000,5.000,0
"03/06/08","04:04:08",24395.000,"cc",28302.273,6.00,6,0.100,21490.000,0.200,2076.000,0.300,352.000,0.500,363.000,1.000,114.000,5.000,0
"03/06/08","04:04:14",24565.000,"cc",28308.471,6.00,6,0.100,21600.000,0.200,2085.000,0.300,392.000,0.500,367.000,1.000,121.000,5.000,0
"03/06/08","04:04:20",24641.000,"cc",28309.147,6.00,6,0.100,21667.000,0.200,2103.000,0.300,367.000,0.500,372.000,1.000,132.000,5.000,0
"03/06/08","04:04:26",24062.000,"cc",28342.363,6.00,6,0.100,21227.000,0.200,1999.000,0.300,364.000,0.500,369.000,1.000,103.000,5.000,0
"03/06/08","04:04:32",24301.000,"cc",28292.779,6.00,6,0.100,21477.000,0.200,2071.000,0.300,313.000,0.500,324.000,1.000,116.000,5.000,0
"03/06/08","04:04:38",24314.000,"cc",28329.486,6.00,6,0.100,21507.000,0.200,2036.000,0.300,326.000,0.500,350.000,1.000,95.000,5.000,0
"03/06/08","04:04:44",24390.000,"cc",28320.721,6.00,6,0.100,21627.000,0.200,2068.000,0.300,292.000,0.500,305.000,1.000,98.000,5.000,0
"03/06/08","04:04:50",24611.000,"cc",28303.588,6.00,6,0.100,21698.000,0.200,2086.000,0.300,356.000,0.500,362.000,1.000,109.000,5.000,0
"03/06/08","04:04:56",24335.000,"cc",28348.545,6.00,6,0.100,21504.000,0.200,2054.000,0.300,329.000,0.500,339.000,1.000,109.000,5.000,0
"03/06/08","04:05:02",24328.000,"cc",28315.777,6.00,6,0.100,21551.000,0.200,2064.000,0.300,308.000,0.500,297.000,1.000,108.000,5.000,0
"03/06/08","04:05:08",24242.000,"cc",28310.504,6.00,6,0.100,21377.000,0.200,2139.000,0.300,296.000,0.500,310.000,1.000,120.000,5.000,0
"03/06/08","04:05:14",24600.000,"cc",28242.865,6.00,6,0.100,21731.000,0.200,2110.000,0.300,303.000,0.500,354.000,1.000,102.000,5.000,0
"03/06/08","04:05:20",24767.000,"cc",28296.820,6.00,6,0.100,21769.000,0.200,2133.000,0.300,365.000,0.500,410.000,1.000,90.000,5.000,0
"03/06/08","04:05:26",24429.000,"cc",28328.291,6.00,6,0.100,21492.000,0.200,2074.000,0.300,376.000,0.500,365.000,1.000,122.000,5.000,0
"03/06/08","04:05:32",24817.000,"cc",28312.451,6.00,6,0.100,21955.000,0.200,2049.000,0.300,329.000,0.500,357.000,1.000,127.000,5.000,0
"03/06/08","04:05:38",24497.000,"cc",28293.916,6.00,6,0.100,21623.000,0.200,2058.000,0.300,333.000,0.500,355.000,1.000,128.000,5.000,0
"03/06/08","04:05:44",24339.000,"cc",28332.627,6.00,6,0.100,21497.000,0.200,2060.000,0.300,322.000,0.500,349.000,1.000,111.000,5.000,0
"03/06/08","04:05:50",24177.000,"cc",28357.244,6.00,6,0.100,21389.000,0.200,2087.000,0.300,281.000,0.500,313.000,1.000,107.000,5.000,0
"03/06/08","04:05:56",24234.000,"cc",28365.838,6.00,6,0.100,21384.000,0.200,2066.000,0.300,327.000,0.500,344.000,1.000,113.000,5.000,0
"03/06/08","04:06:02",25427.000,"cc",28308.637,6.00,6,0.100,22082.000,0.200,2359.000,0.300,455.000,0.500,405.000,1.000,126.000,5.000,0
"03/06/08","04:06:08",25641.000,"cc",28299.404,6.00,6,0.100,22129.000,0.200,2382.000,0.300,502.000,0.500,469.000,1.000,159.000,5.000,0
"03/06/08","04:06:14",26002.000,"cc",28285.147,6.00,6,0.100,22355.000,0.200,2428.000,0.300,556.000,0.500,508.000,1.000,155.000,5.000,0
"03/06/08","04:06:20",24890.000,"cc",28301.637,6.00,6,0.100,21964.000,0.200,2095.000,0.300,361.000,0.500,365.000,1.000,105.000,5.000,0
"03/06/08","04:06:26",24574.000,"cc",28306.482,6.00,6,0.100,21572.000,0.200,2108.000,0.300,369.000,0.500,405.000,1.000,120.000,5.000,0
"03/06/08","04:06:32",25034.000,"cc",28310.914,6.00,6,0.100,22021.000,0.200,2138.000,0.300,387.000,0.500,357.000,1.000,131.000,5.000,0
"03/06/08","04:06:38",25221.000,"cc",28309.188,6.00,6,0.100,22015.000,0.200,2199.000,0.300,432.000,0.500,437.000,1.000,138.000,5.000,0
"03/06/08","04:06:44",25516.000,"cc",28347.848,6.00,6,0.100,22150.000,0.200,2315.000,0.300,463.000,0.500,457.000,1.000,131.000,5.000,0
"03/06/08","04:06:50",24737.000,"cc",28312.025,6.00,6,0.100,21679.000,0.200,2191.000,0.300,381.000,0.500,383.000,1.000,103.000,5.000,0
"03/06/08","04:06:56",24528.000,"cc",28275.244,6.00,6,0.100,21619.000,0.200,2115.000,0.300,322.000,0.500,356.000,1.000,116.000,5.000,0
"03/06/08","04:07:02",24887.000,"cc",28285.273,6.00,6,0.100,21886.000,0.200,2140.000,0.300,338.000,0.500,402.000,1.000,121.000,5.000,0
"03/06/08","04:07:08",24320.000,"cc",28334.965,6.00,6,0.100,21466.000,0.200,2081.000,0.300,319.000,0.500,342.000,1.000,112.000,5.000,0
"03/06/08","04:07:14",24809.000,"cc",28390.430,6.00,6,0.100,21755.000,0.200,2155.000,0.300,396.000,0.500,389.000,1.000,114.000,5.000,0
"03/06/08","04:07:20",24763.000,"cc",28313.773,6.00,6,0.100,21694.000,0.200,2168.000,0.300,380.000,0.500,396.000,1.000,125.000,5.000,0
"03/06/08","04:07:26",24809.000,"cc",28280.336,6.00,6,0.100,21939.000,0.200,2061.000,0.300,317.000,0.500,382.000,1.000,110.000,5.000,0
"03/06/08","04:07:32",24528.000,"cc",28352.607,6.00,6,0.100,21727.000,0.200,2015.000,0.300,341.000,0.500,330.000,1.000,115.000,5.000,0
"03/06/08","04:07:38",24864.000,"cc",28337.797,6.00,6,0.100,21912.000,0.200,2100.000,0.300,353.000,0.500,370.000,1.000,129.000,5.000,0
"03/06/08","04:07:44",24555.000,"cc",28273.109,6.00,6,0.100,21611.000,0.200,2099.000,0.300,360.000,0.500,349.000,1.000,136.000,5.000,0
"03/06/08","04:07:50",24890.000,"cc",28296.619,6.00,6,0.100,21820.000,0.200,2219.000,0.300,371.000,0.500,353.000,1.000,127.000,5.000,0
"03/06/08","04:07:56",24997.000,"cc",28343.731,6.00,6,0.100,21997.000,0.200,2122.000,0.300,381.000,0.500,362.000,1.000,135.000,5.000,0
"03/06/08","04:08:02",25606.000,"cc",28323.609,6.00,6,0.100,22435.000,0.200,2252.000,0.300,396.000,0.500,419.000,1.000,104.000,5.000,0
"03/06/08","04:08:08",25458.000,"cc",28350.047,6.00,6,0.100,22410.000,0.200,2164.000,0.300,348.000,0.500,420.000,1.000,116.000,5.000,0
"03/06/08","04:08:14",24787.000,"cc",28294.190,6.00,6,0.100,21762.000,0.200,2201.000,0.300,343.000,0.500,365.000,1.000,116.000,5.000,0
"03/06/08","04:08:20",25035.000,"cc",28324.190,6.00,6,0.100,21989.000,0.200,2173.000,0.300,350.000,0.500,389.000,1.000,134.000,5.000,0
"03/06/08","04:08:26",24792.000,"cc",28281.910,6.00,6,0.100,21861.000,0.200,2148.000,0.300,292.000,0.500,384.000,1.000,107.000,5.000,0
"03/06/08","04:08:32",25006.000,"cc",28288.043,6.00,6,0.100,22027.000,0.200,2087.000,0.300,398.000,0.500,357.000,1.000,137.000,5.000,0
"03/06/08","04:08:38",24864.000,"cc",28339.918,6.00,6,0.100,21923.000,0.200,2103.000,0.300,350.000,0.500,364.000,1.000,124.000,5.000,0
"03/06/08","04:08:44",25038.000,"cc",28334.180,6.00,6,0.100,22035.000,0.200,2206.000,0.300,337.000,0.500,337.000,1.000,123.000,5.000,0
"03/06/08","04:08:50",25126.000,"cc",28351.236,6.00,6,0.100,22115.000,0.200,2188.000,0.300,330.000,0.500,378.000,1.000,115.000,5.000,0
"03/06/08","04:08:56",25213.000,"cc",28350.551,6.00,6,0.100,22255.000,0.200,2109.000,0.300,353.000,0.500,362.000,1.000,134.000,5.000,0
"03/06/08","04:09:02",24745.000,"cc",28214.350,6.00,6,0.100,21700.000,0.200,2197.000,0.300,352.000,0.500,380.000,1.000,116.000,5.000,0
"03/06/08","04:09:08",25271.000,"cc",28306.660,6.00,6,0.100,22213.000,0.200,2217.000,0.300,334.000,0.500,385.000,1.000,122.000,5.000,0
"03/06/08","04:09:14",25456.000,"cc",28309.049,6.00,6,0.100,22480.000,0.200,2161.000,0.300,341.000,0.500,354.000,1.000,120.000,5.000,0
"03/06/08","04:09:20",25156.000,"cc",28386.172,6.00,6,0.100,22151.000,0.200,2155.000,0.300,359.000,0.500,373.000,1.000,118.000,5.000,0
"03/06/08","04:09:26",24858.000,"cc",28338.563,6.00,6,0.100,21847.000,0.200,2163.000,0.300,347.000,0.500,386.000,1.000,115.000,5.000,0
"03/06/08","04:09:32",25161.000,"cc",28340.238,6.00,6,0.100,22124.000,0.200,2214.000,0.300,368.000,0.500,344.000,1.000,111.000,5.000,0
"03/06/08","04:09:38",25414.000,"cc",28286.645,6.00,6,0.100,22317.000,0.200,2224.000,0.300,349.000,0.500,380.000,1.000,144.000,5.000,0
"03/06/08","04:09:44",25492.000,"cc",28272.400,6.00,6,0.100,22471.000,0.200,2150.000,0.300,374.000,0.500,384.000,1.000,113.000,5.000,0
"03/06/08","04:09:50",25047.000,"cc",28357.533,6.00,6,0.100,22057.000,0.200,2150.000,0.300,343.000,0.500,389.000,1.000,108.000,5.000,0
"03/06/08","04:09:56",25389.000,"cc",28375.242,6.00,6,0.100,22190.000,0.200,2284.000,0.300,407.000,0.500,391.000,1.000,117.000,5.000,0
"03/06/08","04:10:02",25123.000,"cc",28303.768,6.00,6,0.100,22186.000,0.200,2131.000,0.300,331.000,0.500,342.000,1.000,133.000,5.000,0
"03/06/08","04:10:08",25202.000,"cc",28322.176,6.00,6,0.100,21983.000,0.200,2287.000,0.300,408.000,0.500,397.000,1.000,127.000,5.000,0
"03/06/08","04:10:14",25259.000,"cc",28265.400,6.00,6,0.100,22179.000,0.200,2203.000,0.300,396.000,0.500,370.000,1.000,111.000,5.000,0
"03/06/08","04:10:20",25345.000,"cc",28322.315,6.00,6,0.100,22270.000,0.200,2251.000,0.300,327.000,0.500,366.000,1.000,131.000,5.000,0
"03/06/08","04:10:26",25792.000,"cc",28338.647,6.00,6,0.100,22531.000,0.200,2310.000,0.300,420.000,0.500,402.000,1.000,129.000,5.000,0
"03/06/08","04:10:32",26384.000,"cc",28323.219,6.00,6,0.100,22813.000,0.200,2455.000,0.300,512.000,0.500,456.000,1.000,148.000,5.000,0
"03/06/08","04:10:38",26296.000,"cc",28315.674,6.00,6,0.100,22986.000,0.200,2343.000,0.300,415.000,0.500,428.000,1.000,124.000,5.000,0
"03/06/08","04:10:44",25874.000,"cc",28277.299,6.00,6,0.100,22656.000,0.200,2334.000,0.300,377.000,0.500,384.000,1.000,123.000,5.000,0
"03/06/08","04:10:50",25457.000,"cc",28320.367,6.00,6,0.100,22373.000,0.200,2224.000,0.300,358.000,0.500,397.000,1.000,105.000,5.000,0
"03/06/08","04:10:56",25551.000,"cc",28311.856,6.00,6,0.100,22518.000,0.200,2184.000,0.300,354.000,0.500,374.000,1.000,121.000,5.000,0
"03/06/08","04:11:02",25263.000,"cc",28341.334,6.00,6,0.100,22240.000,0.200,2229.000,0.300,361.000,0.500,328.000,1.000,105.000,5.000,0
"03/06/08","04:11:08",25575.000,"cc",28314.815,6.00,6,0.100,22395.000,0.200,2312.000,0.300,336.000,0.500,388.000,1.000,144.000,5.000,0
"03/06/08","04:11:14",25550.000,"cc",28316.729,6.00,6,0.100,22435.000,0.200,2224.000,0.300,387.000,0.500,371.000,1.000,133.000,5.000,0
"03/06/08","04:11:20",25691.000,"cc",28269.207,6.00,6,0.100,22546.000,0.200,2241.000,0.300,369.000,0.500,392.000,1.000,143.000,5.000,0
"03/06/08","04:11:26",25292.000,"cc",28333.578,6.00,6,0.100,22242.000,0.200,2201.000,0.300,363.000,0.500,378.000,1.000,108.000,5.000,0
"03/06/08","04:11:32",25705.000,"cc",28350.522,6.00,6,0.100,22480.000,0.200,2389.000,0.300,359.000,0.500,378.000,1.000,99.000,5.000,0
"03/06/08","04:11:38",25522.000,"cc",28242.354,6.00,6,0.100,22293.000,0.200,2316.000,0.300,371.000,0.500,394.000,1.000,148.000,5.000,0
"03/06/08","04:11:44",25930.000,"cc",28291.676,6.00,6,0.100,22736.000,0.200,2281.000,0.300,382.000,0.500,387.000,1.000,144.000,5.000,0
"03/06/08","04:11:50",26393.000,"cc",28339.266,6.00,6,0.100,22915.000,0.200,2447.000,0.300,446.000,0.500,453.000,1.000,132.000,5.000,0
"03/06/08","04:11:56",25963.000,"cc",28302.986,6.00,6,0.100,22747.000,0.200,2318.000,0.300,369.000,0.500,396.000,1.000,133.000,5.000,0
"03/06/08","04:12:02",25525.000,"cc",28303.523,6.00,6,0.100,22441.000,0.200,2269.000,0.300,329.000,0.500,366.000,1.000,120.000,5.000,0
"03/06/08","04:12:08",25902.000,"cc",28331.791,6.00,6,0.100,22617.000,0.200,2355.000,0.300,401.000,0.500,408.000,1.000,121.000,5.000,0
"03/06/08","04:12:14",25716.000,"cc",28336.686,6.00,6,0.100,22494.000,0.200,2362.000,0.300,353.000,0.500,378.000,1.000,129.000,5.000,0
"03/06/08","04:12:20",25683.000,"cc",28328.385,6.00,6,0.100,22458.000,0.200,2323.000,0.300,364.000,0.500,379.000,1.000,159.000,5.000,0
"03/06/08","04:12:26",25596.000,"cc",28349.527,6.00,6,0.100,22677.000,0.200,2073.000,0.300,330.000,0.500,391.000,1.000,125.000,5.000,0
"03/06/08","04:12:32",25694.000,"cc",28335.594,6.00,6,0.100,22533.000,0.200,2274.000,0.300,370.000,0.500,391.000,1.000,126.000,5.000,0
"03/06/08","04:12:38",25917.000,"cc",28310.707,6.00,6,0.100,22611.000,0.200,2362.000,0.300,378.000,0.500,437.000,1.000,129.000,5.000,0
"03/06/08","04:12:44",26764.000,"cc",28311.547,6.00,6,0.100,23207.000,0.200,2490.000,0.300,479.000,0.500,457.000,1.000,131.000,5.000,0
"03/06/08","04:12:50",25926.000,"cc",28404.266,6.00,6,0.100,22640.000,0.200,2326.000,0.300,425.000,0.500,390.000,1.000,145.000,5.000,0
"03/06/08","04:12:56",25953.000,"cc",28301.414,6.00,6,0.100,22604.000,0.200,2433.000,0.300,394.000,0.500,396.000,1.000,126.000,5.000,0
"03/06/08","04:13:02",26236.000,"cc",28250.297,6.00,6,0.100,23011.000,0.200,2303.000,0.300,371.000,0.500,395.000,1.000,156.000,5.000,0
"03/06/08","04:13:08",26053.000,"cc",28366.885,6.00,6,0.100,22636.000,0.200,2459.000,0.300,409.000,0.500,433.000,1.000,116.000,5.000,0
"03/06/08","04:13:14",26139.000,"cc",28317.604,6.00,6,0.100,22839.000,0.200,2417.000,0.300,358.000,0.500,395.000,1.000,130.000,5.000,0
"03/06/08","04:13:20",26188.000,"cc",28283.773,6.00,6,0.100,22901.000,0.200,2385.000,0.300,355.000,0.500,424.000,1.000,123.000,5.000,0
"03/06/08","04:13:26",25860.000,"cc",28322.119,6.00,6,0.100,22471.000,0.200,2467.000,0.300,366.000,0.500,415.000,1.000,141.000,5.000,0
"03/06/08","04:13:32",25850.000,"cc",28331.563,6.00,6,0.100,22649.000,0.200,2344.000,0.300,369.000,0.500,373.000,1.000,115.000,5.000,0
"03/06/08","04:13:38",26093.000,"cc",28345.834,6.00,6,0.100,22734.000,0.200,2482.000,0.300,364.000,0.500,389.000,1.000,124.000,5.000,0
"03/06/08","04:13:44",26151.000,"cc",28317.672,6.00,6,0.100,22932.000,0.200,2346.000,0.300,379.000,0.500,366.000,1.000,128.000,5.000,0
"03/06/08","04:13:50",26256.000,"cc",28323.945,6.00,6,0.100,22937.000,0.200,2406.000,0.300,368.000,0.500,413.000,1.000,132.000,5.000,0
"03/06/08","04:13:56",25958.000,"cc",28301.879,6.00,6,0.100,22669.000,0.200,2365.000,0.300,383.000,0.500,405.000,1.000,136.000,5.000,0
"03/06/08","04:14:02",25918.000,"cc",28290.436,6.00,6,0.100,22660.000,0.200,2386.000,0.300,353.000,0.500,386.000,1.000,133.000,5.000,0
"03/06/08","04:14:08",25886.000,"cc",28361.260,6.00,6,0.100,22687.000,0.200,2324.000,0.300,371.000,0.500,378.000,1.000,126.000,5.000,0
"03/06/08","04:14:14",26082.000,"cc",28278.949,6.00,6,0.100,22901.000,0.200,2297.000,0.300,342.000,0.500,395.000,1.000,147.000,5.000,0
"03/06/08","04:14:20",26148.000,"cc",28269.684,6.00,6,0.100,22804.000,0.200,2399.000,0.300,400.000,0.500,431.000,1.000,114.000,5.000,0
"03/06/08","04:14:26",25925.000,"cc",28339.594,6.00,6,0.100,22746.000,0.200,2331.000,0.300,335.000,0.500,388.000,1.000,125.000,5.000,0
"03/06/08","04:14:32",26143.000,"cc",28319.359,6.00,6,0.100,22897.000,0.200,2369.000,0.300,351.000,0.500,387.000,1.000,139.000,5.000,0
"03/06/08","04:14:38",26160.000,"cc",28359.652,6.00,6,0.100,22913.000,0.200,2377.000,0.300,398.000,0.500,350.000,1.000,122.000,5.000,0
"03/06/08","04:14:44",25936.000,"cc",28295.141,6.00,6,0.100,22729.000,0.200,2375.000,0.300,348.000,0.500,366.000,1.000,118.000,5.000,0
"03/06/08","04:14:50",26174.000,"cc",28272.467,6.00,6,0.100,22937.000,0.200,2310.000,0.300,373.000,0.500,412.000,1.000,142.000,5.000,0
"03/06/08","04:14:56",25979.000,"cc",28262.484,6.00,6,0.100,22659.000,0.200,2391.000,0.300,387.000,0.500,401.000,1.000,141.000,5.000,0
"03/06/08","04:15:02",26175.000,"cc",28340.523,6.00,6,0.100,22920.000,0.200,2355.000,0.300,380.000,0.500,393.000,1.000,127.000,5.000,0
"03/06/08","04:15:08",26224.000,"cc",28299.479,6.00,6,0.100,22884.000,0.200,2408.000,0.300,378.000,0.500,414.000,1.000,140.000,5.000,0
"03/06/08","04:15:14",26155.000,"cc",28369.256,6.00,6,0.100,22905.000,0.200,2324.000,0.300,377.000,0.500,429.000,1.000,120.000,5.000,0
"03/06/08","04:15:20",26085.000,"cc",28318.256,6.00,6,0.100,22696.000,0.200,2414.000,0.300,383.000,0.500,448.000,1.000,144.000,5.000,0
"03/06/08","04:15:26",26581.000,"cc",28335.957,6.00,6,0.100,23180.000,0.200,2472.000,0.300,425.000,0.500,381.000,1.000,123.000,5.000,0
"03/06/08","04:15:32",26374.000,"cc",28309.662,6.00,6,0.100,22976.000,0.200,2410.000,0.300,396.000,0.500,457.000,1.000,135.000,5.000,0
"03/06/08","04:15:38",25848.000,"cc",28325.025,6.00,6,0.100,22598.000,0.200,2350.000,0.300,372.000,0.500,399.000,1.000,129.000,5.000,0
"03/06/08","04:15:44",26268.000,"cc",28283.201,6.00,6,0.100,22851.000,0.200,2531.000,0.300,393.000,0.500,370.000,1.000,123.000,5.000,0
"03/06/08","04:15:50",25959.000,"cc",28277.869,6.00,6,0.100,22669.000,0.200,2334.000,0.300,392.000,0.500,411.000,1.000,153.000,5.000,0
"03/06/08","04:15:56",26213.000,"cc",28336.822,6.00,6,0.100,22856.000,0.200,2398.000,0.300,411.000,0.500,399.000,1.000,149.000,5.000,0
"03/06/08","04:16:02",26234.000,"cc",28345.863,6.00,6,0.100,22880.000,0.200,2451.000,0.300,369.000,0.500,388.000,1.000,146.000,5.000,0
"03/06/08","04:16:08",26516.000,"cc",28285.318,6.00,6,0.100,22918.000,0.200,2485.000,0.300,491.000,0.500,471.000,1.000,151.000,5.000,0
"03/06/08","04:16:14",27495.000,"cc",28275.410,6.00,6,0.100,23591.000,0.200,2739.000,0.300,526.000,0.500,476.000,1.000,163.000,5.000,0
"03/06/08","04:16:20",26503.000,"cc",28310.967,6.00,6,0.100,23074.000,0.200,2471.000,0.300,391.000,0.500,420.000,1.000,147.000,5.000,0
"03/06/08","04:16:26",26250.000,"cc",28314.957,6.00,6,0.100,22916.000,0.200,2379.000,0.300,377.000,0.500,437.000,1.000,141.000,5.000,0
"03/06/08","04:16:32",26473.000,"cc",28352.340,6.00,6,0.100,23096.000,0.200,2497.000,0.300,375.000,0.500,381.000,1.000,124.000,5.000,0
"03/06/08","04:16:38",25981.000,"cc",28295.869,6.00,6,0.100,22587.000,0.200,2470.000,0.300,377.000,0.500,425.000,1.000,122.000,5.000,0